{"data":{"norad_id":49261,"epoch":"2026-09-20T10:58:14.388672Z","epoch_age_seconds":107763,"freshness":"FRESH","line1":"1 49261U 21088B   26263.45711098  .00010778  00000+0  29842-3 0  9995","line2":"2 49261  97.3662 326.8525 0012814  98.4051 261.8647 15.37078864275042","mean_motion":15.37078864,"eccentricity":0.0012814,"inclination_deg":97.3662,"raan_deg":326.8525,"arg_perigee_deg":98.4051,"mean_anomaly_deg":261.8647,"bstar":0.00029842,"rev_number":27504,"period_min":93.684197585844,"perigee_km":445.99699316589,"apogee_km":463.50832278135,"semimajor_km":6832.8896579736,"source":"CELESTRAK","updated_at":"2026-09-21T09:00:08.031511Z"}}